Regional Weather Roundup
Issued by NWS

Home | Current Version | Previous Version | Graphics & Text | Print | Product List | Glossary On
Versions: 1 2 3 4 5 6 7 8 9 10 11 12 13 14 15 16 17 18 19 20 21 22 23 24 25 26 27 28 29 30 31 32 33 34 35 36 37 38 39 40 41 42 43 44 45 46 47 48 49 50
000
ASUS45 KBOI 182310
RWRID
WEATHER ROUNDUP FOR IDAHO
NATIONAL WEATHER SERVICE BOISE ID
500 PM MDT THU SEP 18 2014

NOTE: "FAIR" INDICATES FEW OR NO CLOUDS BELOW 12000 FEET
WITH NO SIGNIFICANT WEATHER AND/OR OBSTRUCTIONS TO VISIBILITY

IDZ012-014-190000-
SOUTHWEST IDAHO


CITY           SKY/WX    TMP DP  RH WIND       PRES   REMARKS
BOISE          SUNNY     86  37  17 NW6       29.76F
CALDWELL       PTSUNNY   86  43  22 CALM      29.76F
MOUNTAIN HOME  MOSUNNY   85  39  19 E2        29.77F
$$

IDZ016-017-190000-
SOUTHCENTRAL IDAHO


CITY           SKY/WX    TMP DP  RH WIND       PRES   REMARKS
BURLEY         LGT RAIN  72  51  47 S8        29.86R
JEROME         MOSUNNY   79  43  27 SW8       29.84F
TWIN FALLS     PTSUNNY   81  43  26 W8        29.85F HAZE
$$

IDZ019>023-190000-
SOUTHEAST IDAHO


CITY           SKY/WX    TMP DP  RH WIND       PRES   REMARKS
IDAHO FALLS    CLOUDY    80  49  33 SW9       29.84S
POCATELLO      PTSUNNY   76  49  38 S15       29.88R THUNDER
REXBURG        PTSUNNY   77  50  38 NW7       29.85S
$$

IDZ006-010-011-018-031-032-190000-
CENTRAL IDAHO MOUNTAINS


CITY           SKY/WX    TMP DP  RH WIND       PRES   REMARKS
MCCALL         PTSUNNY   76  37  24 S18       29.87F
HAILEY         PTSUNNY   77  45  31 W6        29.90S SMOKE
STANLEY          N/A     70  31  23 W10G18    29.99F
SALMON         MOSUNNY   72  54  53 N6        29.79F
CHALLIS        MOSUNNY   76  31  19 W18G28    29.87F
$$

IDZ002-004-006-007-026-190000-
NORTHERN IDAHO


CITY           SKY/WX    TMP DP  RH WIND       PRES   REMARKS
LEWISTON       CLOUDY    83  42  23 NW14G22   29.71F
LOWELL           N/A     80  59  48 CALM      29.69F
COEUR D`ALENE  CLOUDY    75  43  31 SW16      29.72S
MULLAN PASS    CLOUDY    60  40  47 NW3       29.92R
$$


USA.gov is the U.S. government's official web portal to all federal, state and local government web resources and services.